BREEZE-M DEB (TANK), 41390

Orbit data source: Space-Track

BREEZE-M DEB (TANK), 41390 is space debris in HEO originally from a launch on Mon, 14 Mar 2016 UTC launched from the Tyuratam Missile And Space Complex (TTMTR). Debris objects in space refer to the collection of defunct objects orbiting the Earth. Examples of debris include non-operational satellites, rocket bodies, and fragments generated from explosions, collisions, or faulty payload assembly.

Loading next visibility...
Identifier
41390, 2016-017C
Orbit
HEO
Last TLE update
2 days ago
Origin
Manufacturer
Khrunichev
Mission
Spacecraft
Bus & Motor
BRIZ TANK, Unknown motor
Mass
~1,000 kg wet, 1,000 kg dry
Launch date (UTC)
2016-03-14 (9 years ago)
Launch vehicle
Unknown
Launch site
Tyuratam Missile And Space Complex (TTMTR)
Object type
Payload
Rocket body
Debris
Shape & HBR
Torus, 4 m
Radar Cross Section
8.218 m², Large (>1 m²)

Expand to show TLE details & history

TLE from 2 days ago
0 BREEZE-M DEB (TANK)
1 41390U 16017C   25184.29703970  .00000002  00000-0  27971-3 0  9990
2 41390  51.6034 228.7541 5881621 166.9347 219.8914  3.82662391130068
Epoch: 2025-07-03T07:07Z
TLE epoch observation values (Epoch: 2025-07-03T07:07:44.23Z)
Latitude
-0.00002°
Longitude
-159.73719°
Altitude
20,064.434 km
Speed
2.658 km/s
True Right ascension
15h 15m 03s
True Declination
0° 00' 00"
Sunlit
Object was in daylight at epoch
Visualization orbit readout
Latitude
-4.31244°
Longitude
-163.96603°
Altitude
20,758.311 km
Speed
2.509 km/s
Apparent Right ascension
15h 03m 03s
Apparent Declination
-15° 23' 27"
Sunlit
Object is in daylight
Visualization observer readout
Local Sidereal Time
14:35:49
Azimuth
172.046° S
Elevation
34.331°
Doppler factor
1
Orbital elements
Apogee altitude
21,043.663 km
Perigee altitude
732.81 km
Semi-major axis
17,266.373 km
Eccentricity
0.58816
Inclination
51.6034°
RAAN
228.7541°
Arg. of periapsis
166.9347°
True anomaly
Unknown
Mean anomaly
219.8914°
Eccentric anomaly
Unknown
Mean motion
0.95662 °/min
Orbital period
376.32 mins
BSTAR
0.00027971
Loading maneuver chart data...
Loading SW <> Apogee altitude chart data...
Loading historical data...
Loading historical data...
Loading historical data...
Loading historical data...
Loading historical data...
Loading historical data...
Loading historical data...
Other satellites on launch #17 in the year 2016 (2016-03-14 UTC)

BREEZE-M DEB (TANK) Visibility forecast

Observer location: undefined°, undefined°

Span
Click to sort rows by Start time (UTC) header in descending order
Start Az.
Max El. time (UTC)
Max El. Az.
Max El.
End time (UTC)
End Az.
142 mins2025-07-05 02:42:52.553Z172.05° S2025-07-05 04:31:52.553Z123.557° SE43.337°2025-07-05 05:04:52.553Z53.806° ENE
34 mins2025-07-05 11:03:52.553Z297.12° NW2025-07-05 11:31:52.553Z21.153° NNE42.405°2025-07-05 11:37:52.553Z103.271° ESE
19 mins2025-07-06 02:23:52.553Z189° SSW2025-07-06 02:42:52.553Z189.747° SSW15.719°2025-07-06 02:42:52.553Z189.747° SSW
|